Location: Celina Elementary School
(33.3262°N, 96.7767°W)
Time: 08:32:20
(UTC+00:00)

Meteor PRIRODA - Pass Details

Date: 26 November 2021
Orbit: 488 x 505 km, 97.6° (Epoch: 19 January)

Event Time Altitude Azimuth Distance (km) Brightness Sun altitude
Rises 12:15:37 0° 10° (N) 2,566 7.2 -11.2°
Reaches altitude 10° 12:17:41 10° 9° (N) 1,680 6.2 -10.7°
Maximum altitude 12:21:18 80° 283° (WNW) 501 3.5 -10.0°
Drops below altitude 10° 12:24:53 10° 196° (SSW) 1,671 6.3 -9.3°
Sets 12:26:57 0° 195° (SSW) 2,550 7.3 -8.9°
